Regional Weather Roundup
Issued by NWS

Home | Current Version | Previous Version | Text Only | Print | Product List | Glossary On
Versions: 1 2 3 4 5 6 7 8 9 10 11 12 13 14 15 16 17 18 19 20 21 22 23 24 25 26 27 28 29 30 31 32 33 34 35 36 37 38 39 40 41 42 43 44 45 46 47 48 49 50
000
ASUS43 KMPX 290910
RWRMN
WEATHER ROUNDUP FOR MINNESOTA
NATIONAL WEATHER SERVICE TWIN CITIES/CHANHASSEN MN
400 AM CDT FRI MAY 29 2015


NOTE: "FAIR" INDICATES FEW OR NO CLOUDS BELOW 12,000 FEET WITH NO
SIGNIFICANT WEATHER AND/OR OBSTRUCTIONS TO VISIBILITY. N/A MEANS
CURRENT SKY AND/OR WEATHER CONDITIONS ARE NOT AVAILABLE.

MNZ060>063-068>070-291000-
   Twin Cities Metro

CITY           SKY/WX    TMP DP  RH WIND       PRES   REMARKS
TWIN CITIES    RAIN      65  63  93 SE9       29.88F
ST PAUL        LGT RAIN  64  61  90 SE6       29.89F
CRYSTAL        LGT RAIN  68  62  81 S6        29.86F
BLAINE         CLOUDY    70  64  83 S8        29.87F
LAKEVILLE      CLOUDY    63  61  94 SE8       29.88F
EDEN PRAIRIE   CLOUDY    67  63  87 S9        29.87S
SOUTH ST PAUL  CLOUDY    65  61  87 SE7       29.89F
LAKE ELMO      CLOUDY    63  61  94 SE7       29.90F
$$
MNZ001>005-007-008-013>017-022>024-027-028-291000-
   Northwest Minnesota

CITY           SKY/WX    TMP DP  RH WIND       PRES   REMARKS
BEMIDJI        CLOUDY    58  57  97 CALM      29.85S
HALLOCK        CLOUDY    48  46  93 N25G32    29.97R
ROSEAU         CLOUDY    54  48  82 NW18      29.91R
WARROAD        CLOUDY    54  50  87 NW13G23   29.90R
THIEF RVR FALL CLOUDY    57  54  88 N21       29.89S
CROOKSTON      CLOUDY    54  52  94 N25G37    29.91R FOG
FOSSTON        DRIZZLE   57  57 100 CALM      29.86S
DETROIT LAKES  DRIZZLE   59  59 100 W3        29.86F
MOORHEAD       DRIZZLE   61  61 100 W5        29.87R
PARK RAPIDS    CLOUDY    59  57  93 W6        29.85R
MAHNOMEN       CLOUDY    59  58  97 W7        29.85F
$$
MNZ006-009>011-018-025>026-291000-
   North Central Minnesota

CITY           SKY/WX    TMP DP  RH WIND       PRES   REMARKS
BAUDETTE       CLOUDY    58  55  90 N17       29.85R
FLAG ISLAND    CLOUDY    55  54  94 NW22      29.87R
INTL FALLS     CLOUDY    59  58  96 SW5       29.82F
WASKISH        LGT RAIN  61  61 100 CALM      29.84S
BIG FORK       RAIN      61  57  88 CALM      29.84S
LONGVILLE      DRIZZLE   59  57  94 NW5       29.84R
GRAND RAPIDS   CLOUDY    59  54  82 CALM      29.84S
CRANE LAKE     RAIN      57  55  94 S3        29.85S
ORR            CLOUDY    57  52  82 CALM      29.82R
COOK           CLOUDY    57  50  77 CALM      29.84F
WALKER         PTSUNNY   58  57  97 CALM      29.84F
$$
MNZ012-019>021-037-291000-
   Northeast Minnesota

CITY           SKY/WX    TMP DP  RH WIND       PRES   REMARKS
DULUTH         MOCLDY    53  48  83 S6        29.87F
HIBBING        CLOUDY    51  48  89 SE3       29.84F
EVELETH        MOCLDY    54  48  82 CALM      29.86F
DULUTH HARBOR  CLOUDY    43  41  93 E5        29.90F
TWO HARBORS    MOCLDY    48  43  81 CALM      29.87F
SILVER BAY     MOCLDY    45  43  93 CALM      29.87F
GRAND MARAIS     N/A     40  38  93 SW6       29.88F
G MARAIS ARPRT MOCLDY    54  48  82 S5        29.89F
$$
MNZ029>031-032-039>041-046>048-054>057-064-291000-
   West Central Minnesota

CITY           SKY/WX    TMP DP  RH WIND       PRES   REMARKS
FERGUS FALLS   CLOUDY    61  61 100 NE3       29.85F
WHEATON        CLOUDY    59  57  94 NW6       29.88R
MORRIS         CLOUDY    61  59  94 SE6       29.82S
ALEXANDRIA     MOCLDY    60  57  89 CALM      29.86R
ELBOW LAKE     LGT RAIN  60  59  98 N9        29.84S
WADENA         CLOUDY    59  57  94 CALM      29.86R FOG
GLENWOOD       MOCLDY    61  55  82 SE7       29.84F
APPLETON       RAIN      63  59  88 S7        29.84R
BENSON         DRIZZLE   63  57  82 S9        29.83F
ORTONVILLE     LGT RAIN  61  59  94 E7        29.81F
MADISON        LGT RAIN  63  61  94 E9        29.82F
WILLMAR        FAIR      64  61  88 SE6       29.87F
$$
MNZ033>034-036-042>043-049>051-058-059-291000-
   Central Minnesota

CITY           SKY/WX    TMP DP  RH WIND       PRES   REMARKS
ST CLOUD       MOCLDY    63  60  90 S6        29.86F
SAUK CENTRE    FAIR      59  57  92 S5        29.85S
PAYNESVILLE    PTCLDY    60  58  93 SE7       29.86F
AITKIN         CLOUDY    64  57  77 S6        29.82S
PINE RIVER     CLOUDY    59  59 100 CALM      29.87S
BRAINERD       CLOUDY    61  57  87 CALM      29.83F
STAPLES        CLOUDY    59  57  94 CALM      29.85R
LONG PRAIRIE   FAIR      59  55  88 CALM      29.85R
LITTLE FALLS   CLOUDY    59  55  88 SE5       29.83F
LITCHFIELD     MOCLDY    66  63  88 CALM      29.88S
BUFFALO        CLOUDY    65  60  81 CALM      29.88S
MAPLE LAKE     CLOUDY    67  62  85 CALM      29.87F
$$
MNZ037-044-045-052-053-291000-
   East Central Minnesota

CITY           SKY/WX    TMP DP  RH WIND       PRES   REMARKS
PRINCETON      CLOUDY    66  61  82 CALM      29.87F
MORA           MOCLDY    63  55  77 SE5       29.88F
CAMBRIDGE      RAIN      68  57  68 S3        29.85F
RUSH CITY      CLOUDY    64  57  77 CALM      29.87F
MOOSE LAKE     MOCLDY    46  45  93 CALM      29.85F
HINCKLEY       CLOUDY    63  55  77 S3        29.88F
CLOQUET        MOCLDY    45  43  93 CALM      29.87F
MCGREGOR       MOCLDY    61  55  82 SE10      29.84F
$$
MNZ071>073-080-081-089-090-097-098-291000-
   Southwest Minnesota

CITY           SKY/WX    TMP DP  RH WIND       PRES   REMARKS
MONTEVIDEO     DRIZZLE   63  59  88 SE5       29.85F
GRANITE FALLS  RAIN      64  61  90 CALM      29.86F
CANBY          DRIZZLE   61  60  95 E7        29.85F
MARSHALL       MOCLDY    63  57  82 N7        29.86S THUNDER
REDWOOD FALLS  CLOUDY    65  61  87 NW8       29.86R
OLIVIA         CLOUDY    63  57  82 CALM      29.86S
PIPESTONE      CLOUDY    64  63  94 S8        29.87S
WINDOM         LGT RAIN  63  59  88 S8        29.85F
WORTHINGTON    CLOUDY    64  61  88 S14       29.87F
JACKSON        CLOUDY    61  59  94 SW7       29.89F
TRACY          MOCLDY    65  63  91 NW6       29.87R
SLAYTON        CLOUDY    65  64  94 S12       29.88R
$$
MNZ065>067-074>077-082>085-091>093-291000-
   South Central Minnesota

CITY           SKY/WX    TMP DP  RH WIND       PRES   REMARKS
MANKATO        CLOUDY    66  61  82 S9        29.87F
NEW ULM        PTCLDY    64  63  94 S6        29.86S
ST JAMES       MOCLDY    66  64  94 S9        29.86F
FAIRMONT       CLOUDY    66  59  77 S10       29.87F
GLENCOE        CLOUDY    68  64  88 S5        29.87S
FARIBAULT      CLOUDY    64  63  94 SE8       29.89F
OWATONNA       CLOUDY    64  61  88 SE9       29.90F
WASECA         CLOUDY    64  59  82 S9        29.89F
ALBERT LEA     LGT RAIN  64  63  94 S7        29.90F
$$
MNZ078>079-086>088-094>096-291000-
   Southeast Minnesota

CITY           SKY/WX    TMP DP  RH WIND       PRES   REMARKS
ROCHESTER      LGT RAIN  64  60  87 S10       29.94F
RED WING       LGT RAIN  63  61  94 E8        29.89F
STANTON        RAIN      64  60  87 CALM      29.89F
DODGE CENTER   CLOUDY    64  61  88 S10       29.92F
WINONA         CLOUDY    63  59  88 CALM      29.94S
AUSTIN         CLOUDY    64  61  88 S7        29.92F
PRESTON        LGT RAIN  63  59  87 S9        29.95F
$$
ABBREVIATIONS USED IN REMARKS
   TC - TEMPERATURES IN CELSIUS
  WCI - WIND CHILL INDEX
   HX - HEAT INDEX
  VSB - VISIBILITY
$$



USA.gov is the U.S. government's official web portal to all federal, state and local government web resources and services.